Wahpeton, ND

6:34 PM CDT on July 25, 2016 (GMT -0500)
Stern

Weather History for KBWP - January, 2014

Change the Weather History Date:

Tuesday, January 21, 2014

  Actual Average (KFFM) Record (KFFM)
Temperature  
Mean Temperature -6 °F -  
Max Temperature 10 °F 20 °F 41 °F (1968)
Min Temperature -22 °F 0 °F -33 °F (1954)
Degree Days  
Heating Degree Days 71    
Moisture  
Dew Point -11 °F    
Average Humidity 75    
Maximum Humidity 85    
Minimum Humidity 65    
Precipitation  
Precipitation 0.00 in - - ()
Sea Level Pressure  
Sea Level Pressure 30.21 in    
Wind  
Wind Speed 9 mph (South)    
Max Wind Speed 21 mph    
Max Gust Speed 24 mph    
Visibility 7 miles    
Events      
Averages and records for this station are not official NWS values.
T = Trace of Precipitation, MM = Missing Value Source: NWS Daily Summary

Daily Weather History Graph

Daily Weather History Graph

Search for Another Location

Airport or City:

Trip Planner

Search our weather history database for the weather conditions in past years. The results will help you decide how hot, cold, wet, or windy it might be!

Date:

Astronomy

Jan. 21, 2014 Rise Set
Actual Time 8:00 AM CST 5:15 PM CST
Civil Twilight 7:27 AM CST 5:48 PM CST
Nautical Twilight 6:50 AM CST 6:25 PM CST
Astronomical Twilight 6:15 AM CST 7:00 PM CST
Moon 11:11 PM CST (1/21) 10:11 AM CST (1/21)
Length of Visible Light 10h 20m
Length of Day
9h 14m
Waning Gibbous, 74% of the Moon is Illuminated
Jan 21
Waning Gibbous
Jan 23
Last Quarter
Jan 30
New
Feb 6
First Quarter
Feb 14
Full

Hourly Weather History & Observations

Time (CST) Temp. Windchill Dew Point Humidity Pressure Visibility Wind Dir Wind Speed Gust Speed Precip Events Conditions
12:15 AM -18.4 °F -36.6 °F -25.6 °F 70% 30.56 in 10.0 mi WSW 8.1 mph - N/A   Clear
12:35 AM -20.2 °F -40.1 °F -27.4 °F 69% 30.55 in 10.0 mi West 9.2 mph - N/A   Clear
12:55 AM -20.2 °F -37.3 °F -27.4 °F 69% 30.55 in 10.0 mi West 6.9 mph - N/A   Clear
1:15 AM -20.2 °F -33.5 °F -27.4 °F 69% 30.54 in 10.0 mi WSW 4.6 mph - N/A   Clear
1:35 AM -22.0 °F - -27.4 °F 76% 30.53 in 10.0 mi Calm Calm - N/A   Clear
1:55 AM -22.0 °F -33.0 °F -27.4 °F 76% 30.52 in 10.0 mi West 3.5 mph - N/A   Clear
2:15 AM -20.2 °F -33.5 °F -27.4 °F 69% 30.52 in 10.0 mi West 4.6 mph - N/A   Clear
2:35 AM -20.2 °F -30.9 °F -27.4 °F 69% 30.51 in 10.0 mi West 3.5 mph - N/A   Clear
2:55 AM -20.2 °F - -25.6 °F 76% 30.50 in 10.0 mi Calm Calm - N/A   Clear
3:15 AM -20.2 °F -30.9 °F -27.4 °F 69% 30.49 in 10.0 mi WSW 3.5 mph - N/A   Clear
3:35 AM -20.2 °F - -27.4 °F 69% 30.48 in 10.0 mi Calm Calm - N/A   Clear
3:55 AM -20.2 °F - -27.4 °F 69% 30.46 in 10.0 mi Calm Calm - N/A   Clear
4:15 AM -20.2 °F -30.9 °F -27.4 °F 69% 30.45 in 10.0 mi SSE 3.5 mph - N/A   Clear
4:35 AM -20.2 °F -30.9 °F -27.4 °F 69% 30.44 in 10.0 mi SE 3.5 mph - N/A   Clear
4:55 AM -20.2 °F - -27.4 °F 69% 30.43 in 10.0 mi Calm Calm - N/A   Clear
5:15 AM -18.4 °F - -25.6 °F 70% 30.43 in 10.0 mi Calm Calm - N/A   Clear
5:35 AM -18.4 °F -28.9 °F -23.8 °F 76% 30.41 in 10.0 mi ESE 3.5 mph - N/A   Clear
5:55 AM -16.6 °F -31.3 °F -23.8 °F 70% 30.40 in 10.0 mi SE 5.8 mph - N/A   Clear
6:15 AM -14.8 °F -30.8 °F -22.0 °F 70% 30.38 in 10.0 mi SE 6.9 mph - N/A   Scattered Clouds
6:35 AM -14.8 °F -32.2 °F -20.2 °F 77% 30.38 in 10.0 mi SSE 8.1 mph - N/A   Mostly Cloudy
6:55 AM -13.0 °F -27.0 °F -18.4 °F 77% 30.37 in 10.0 mi SSE 5.8 mph - N/A   Mostly Cloudy
7:15 AM -13.0 °F -28.6 °F -18.4 °F 77% 30.36 in 10.0 mi SSE 6.9 mph - N/A   Mostly Cloudy
7:35 AM -11.2 °F -27.8 °F -16.6 °F 77% 30.34 in 10.0 mi SSE 8.1 mph - N/A   Overcast
7:55 AM -9.4 °F -26.8 °F -16.6 °F 71% 30.33 in 10.0 mi SSE 9.2 mph - N/A   Overcast
8:15 AM -9.4 °F -27.9 °F -16.6 °F 71% 30.31 in 10.0 mi South 10.4 mph - N/A   Overcast
8:35 AM -9.4 °F -28.9 °F -16.6 °F 71% 30.28 in 10.0 mi SSE 11.5 mph - N/A   Mostly Cloudy
8:55 AM -7.6 °F -26.6 °F -16.6 °F 65% 30.28 in 10.0 mi SSE 11.5 mph - N/A   Mostly Cloudy
9:15 AM -7.6 °F -27.5 °F -14.8 °F 71% 30.27 in 10.0 mi SSE 12.7 mph - N/A   Overcast
9:35 AM -7.6 °F -29.8 °F -14.8 °F 71% 30.26 in 10.0 mi SSE 16.1 mph - N/A   Overcast
9:55 AM -5.8 °F -26.8 °F -14.8 °F 65% 30.24 in 10.0 mi SSE 15.0 mph 19.6 mph N/A   Overcast
10:15 AM -5.8 °F -28.2 °F -13.0 °F 71% 30.23 in 10.0 mi SSE 17.3 mph - N/A   Overcast
10:35 AM -5.8 °F -28.2 °F -13.0 °F 71% 30.23 in 10.0 mi SSE 17.3 mph - N/A   Overcast
10:55 AM -4.0 °F -25.8 °F -13.0 °F 65% 30.21 in 10.0 mi SSE 17.3 mph - N/A   Overcast
11:15 AM -4.0 °F -25.2 °F -13.0 °F 65% 30.20 in 10.0 mi SSE 16.1 mph - N/A   Overcast
11:35 AM -4.0 °F -27.6 °F -11.2 °F 71% 30.17 in 1.0 mi SSE 20.7 mph 24.2 mph N/A   Overcast
11:55 AM -4.0 °F -25.8 °F -9.4 °F 78% 30.16 in 1.0 mi SSE 17.3 mph 20.7 mph N/A   Overcast
12:15 PM -4.0 °F -26.4 °F -9.4 °F 78% 30.16 in 1.2 mi SSE 18.4 mph 21.9 mph N/A   Overcast
12:35 PM -2.2 °F -24.7 °F -7.6 °F 78% 30.13 in 1.0 mi SSE 19.6 mph - N/A   Overcast
12:55 PM -2.2 °F -22.9 °F -7.6 °F 78% 30.12 in 1.2 mi SSE 16.1 mph - N/A   Overcast
1:15 PM -2.2 °F -22.9 °F -7.6 °F 78% 30.09 in 1.0 mi SSE 16.1 mph - N/A   Overcast
1:35 PM -0.4 °F -21.2 °F -7.6 °F 72% 30.07 in 1.2 mi SSE 17.3 mph - N/A   Overcast
1:55 PM -0.4 °F -21.2 °F -5.8 °F 78% 30.06 in 1.2 mi SSE 17.3 mph - N/A   Overcast
2:15 PM -0.4 °F -21.2 °F -5.8 °F 78% 30.05 in 1.2 mi SSE 17.3 mph 20.7 mph N/A   Overcast
2:35 PM -0.4 °F -21.7 °F -5.8 °F 78% 30.02 in 1.2 mi SSE 18.4 mph - N/A   Overcast
2:55 PM -0.4 °F -21.2 °F -5.8 °F 78% 30.03 in 1.5 mi SSE 17.3 mph 21.9 mph N/A   Overcast
3:15 PM -0.4 °F -19.2 °F -5.8 °F 78% 30.04 in 3.0 mi South 13.8 mph - N/A   Overcast
3:35 PM 1.4 °F -18.2 °F -5.8 °F 72% 30.03 in 7.0 mi South 16.1 mph - N/A   Overcast
3:55 PM 1.4 °F -18.8 °F -4.0 °F 78% 30.04 in 5.0 mi South 17.3 mph - N/A   Overcast
4:15 PM 1.4 °F -18.8 °F -4.0 °F 78% 30.03 in 5.0 mi South 17.3 mph - N/A   Overcast
4:35 PM 1.4 °F -18.8 °F -4.0 °F 78% 30.02 in 5.0 mi South 17.3 mph - N/A   Overcast
4:55 PM 1.4 °F -17.6 °F -4.0 °F 78% 30.02 in 10.0 mi South 15.0 mph - N/A   Overcast
5:15 PM 3.2 °F -15.3 °F -4.0 °F 72% 30.02 in 4.0 mi South 15.0 mph - N/A   Overcast
5:35 PM 3.2 °F -13.9 °F -2.2 °F 78% 30.02 in 3.0 mi South 12.7 mph - N/A   Overcast
5:55 PM 3.2 °F -12.2 °F -0.4 °F 85% 30.01 in 7.0 mi South 10.4 mph - N/A   Overcast
6:15 PM 3.2 °F -11.3 °F -0.4 °F 85% 30.02 in 7.0 mi South 9.2 mph - N/A   Overcast
6:35 PM 5.0 °F -9.1 °F -0.4 °F 78% 30.02 in 7.0 mi South 9.2 mph - N/A   Overcast
6:55 PM 5.0 °F -8.1 °F -0.4 °F 78% 30.02 in 4.0 mi South 8.1 mph - N/A   Overcast
7:15 PM 5.0 °F -6.9 °F -0.4 °F 78% 30.01 in 4.0 mi South 6.9 mph - N/A   Overcast
7:35 PM 5.0 °F -5.6 °F 1.4 °F 85% 30.01 in 3.0 mi SSW 5.8 mph - N/A   Overcast
7:55 PM 5.0 °F -2.1 °F 1.4 °F 85% 30.01 in 2.5 mi SSW 3.5 mph - N/A   Overcast
8:15 PM 5.0 °F -2.1 °F 1.4 °F 85% 30.01 in 2.5 mi WSW 3.5 mph - N/A   Overcast
8:35 PM 5.0 °F -4.1 °F 1.4 °F 85% 30.00 in 3.0 mi SW 4.6 mph - N/A   Overcast
8:55 PM 6.8 °F -4.8 °F 3.2 °F 85% 30.00 in 4.0 mi West 6.9 mph - N/A   Overcast
9:15 PM 6.8 °F -5.9 °F 3.2 °F 85% 30.01 in 4.0 mi WNW 8.1 mph - N/A   Overcast
9:35 PM 8.6 °F 0.1 °F 3.2 °F 79% 30.01 in 4.0 mi NW 4.6 mph - N/A   Overcast
9:55 PM 8.6 °F -2.6 °F 3.2 °F 79% 30.01 in 5.0 mi NW 6.9 mph - N/A   Overcast
10:15 PM 10.4 °F -6.0 °F 5.0 °F 79% 30.01 in 10.0 mi NNW 15.0 mph 20.7 mph N/A   Overcast
10:35 PM 10.4 °F -6.0 °F 5.0 °F 79% 30.02 in 10.0 mi NNW 15.0 mph 21.9 mph N/A   Overcast
10:55 PM 10.4 °F -4.1 °F 3.2 °F 73% 30.04 in 10.0 mi NNW 11.5 mph 20.7 mph N/A   Overcast
11:15 PM 10.4 °F -4.1 °F 3.2 °F 73% 30.04 in 10.0 mi NNW 11.5 mph - N/A   Overcast
11:35 PM 10.4 °F -4.1 °F 3.2 °F 73% 30.05 in 10.0 mi NNW 11.5 mph 20.7 mph N/A   Overcast
11:55 PM 10.4 °F -4.1 °F 3.2 °F 73% 30.05 in 10.0 mi NW 11.5 mph - N/A   Overcast